Wind_Speed
13 14 15 16 18 19 21 23 26 28 30 32 34 37 40 43 45 48 50 52 54 55 56 57 58 60 60 61 61 61 60 59 57 54 51 49 46 44 42 40 38 37 37 37
15 16 17 18 20 22 23 25 27 29 31 34 36 39 42 45 48 50 52 53 54 56 56 58 59 60 60 60 60 60 59 58 56 54 52 49 46 44 42 40 38 36 35 34
16 17 18 19 21 23 24 26 29 31 34 36 38 40 45 48 50 52 54 55 56 56 57 58 59 60 60 60 59 59 57 56 55 53 51 49 46 44 43 41 40 38 36 35
17 18 19 21 23 24 26 28 31 33 36 38 40 42 46 50 52 54 55 56 56 56 57 59 60 60 59 58 58 57 57 55 53 51 50 48 47 44 42 42 40 39 37 36
18 20 21 23 26 28 29 30 33 35 38 40 42 43 45 50 52 54 55 56 56 57 58 59 59 59 57 57 57 57 56 54 52 50 48 47 45 44 42 41 40 39 38 38
20 22 25 26 28 30 32 33 35 37 40 42 46 48 48 51 53 53 55 56 57 57 58 59 58 57 57 57 57 56 54 52 50 48 46 44 42 41 40 39 38 38 38 38
21 23 25 27 29 31 34 36 37 39 42 44 47 50 53 55 55 55 56 57 57 58 58 57 57 57 57 57 56 54 51 48 46 44 42 40 38 37 37 37 37 37 36 36
22 24 26 28 30 32 33 35 38 40 43 45 48 50 53 55 55 55 56 56 57 57 57 56 57 57 57 55 53 50 48 45 42 38 36 35 34 33 33 33 34 35 34 34
24 25 27 28 30 32 34 36 38 41 44 47 49 51 53 55 55 55 55 56 56 56 56 56 56 56 55 53 50 47 44 41 38 35 33 32 30 29 29 30 31 32 32 32
24 25 27 28 30 33 35 37 39 42 46 48 50 52 54 55 55 55 55 55 55 55 55 54 54 53 53 52 48 45 42 39 36 33 30 28 25 25 25 25 26 27 28 29
24 25 27 29 31 33 36 38 40 44 47 49 51 52 54 55 55 54 55 54 54 55 54 53 53 52 53 51 47 44 41 39 34 31 27 23 21 20 19 20 20 21 23 25
25 26 28 30 32 34 36 38 41 44 47 49 52 53 54 55 54 54 54 53 53 53 53 52 52 52 52 50 47 43 40 37 33 28 24 20 18 15 14 14 16 18 20 22
25 26 28 30 32 34 36 39 42 45 48 50 52 53 54 54 54 53 53 52 52 53 52 51 51 52 51 49 46 42 38 35 30 26 21 18 14 11 9 9 12 14 16 19
25 27 28 30 32 35 37 39 42 45 48 50 52 53 53 54 53 52 52 50 51 52 51 50 50 51 50 48 45 41 38 33 29 25 21 17 13 8 4 4 7 10 13 15
26 27 29 31 33 35 37 40 43 45 47 49 51 52 52 53 52 51 50 49 49 50 49 49 49 50 49 46 44 41 38 33 29 25 21 17 13 8 3 1 4 7 10 12
27 28 30 32 34 36 39 41 43 45 47 49 51 52 51 51 51 50 49 48 48 47 47 47 48 48 47 45 43 40 37 33 29 26 22 19 15 11 8 5 5 7 9 11
28 30 32 33 35 38 40 42 43 45 47 49 51 51 51 50 49 48 47 46 45 45 46 45 46 46 45 45 43 40 37 33 29 26 24 21 18 15 12 10 9 10 10 12
30 31 33 35 37 39 40 42 44 46 47 49 50 51 50 48 47 47 45 44 43 42 43 43 43 44 43 43 42 40 37 33 29 26 24 22 19 17 15 13 13 12 13 12
32 33 35 36 37 39 41 42 44 46 47 48 49 49 49 48 47 46 44 42 40 39 39 39 40 41 41 40 40 39 37 34 30 27 24 23 21 18 17 16 14 14 13 13
34 35 36 37 38 39 41 43 44 46 47 47 48 47 47 46 44 43 41 40 38 37 36 36 37 38 37 37 37 37 35 34 31 28 26 24 22 20 18 17 17 16 15 15
35 36 38 39 39 39 41 43 44 46 47 46 46 45 45 44 43 41 39 37 36 34 33 33 34 35 35 34 34 34 33 32 30 28 26 25 23 22 21 20 19 18 18 18
37 38 39 40 39 40 42 43 45 46 46 45 45 44 43 42 41 40 37 35 33 32 30 30 30 31 32 32 31 31 31 30 29 27 25 24 23 23 23 22 22 22 22 22
39 39 39 40 40 41 43 44 46 46 45 44 43 42 41 40 39 37 35 32 31 29 28 27 27 28 28 29 28 28 28 28 28 27 25 23 22 22 22 22 22 22 23 24
40 39 38 39 41 42 44 45 45 45 44 43 41 40 39 38 38 36 34 31 29 27 25 24 23 23 24 25 25 25 26 26 26 26 25 24 23 22 22 22 22 23 24 24
40 40 40 41 42 43 43 44 44 44 43 41 40 39 37 36 35 34 32 29 27 25 23 21 20 20 20 20 21 21 22 24 24 24 23 23 23 22 22 22 22 22 22 23
42 41 41 42 43 43 43 43 43 42 41 39 38 37 36 34 33 33 31 27 25 23 21 19 17 16 16 16 17 18 18 19 20 21 21 21 21 21 20 21 21 21 22 22
42 41 41 42 43 43 42 41 40 40 38 37 35 34 34 33 31 30 29 26 24 22 19 17 15 14 13 12 13 13 14 15 16 17 17 18 18 18 18 18 19 19 20 21
Wind_Direction
327 327 326 324 323 324 326 326 324 325 325 326 326 327 326 326 326 326 325 324 322 320 318 317 315 314 312 311 310 308 306 304 301 298 295 291 287 283 279 275 272 269 267 264
326 327 327 326 326 327 329 327 325 326 327 329 330 330 329 328 328 327 326 324 322 320 318 317 316 315 313 312 310 308 305 303 301 297 294 290 286 281 277 273 270 267 264 263
323 325 325 323 325 328 330 329 329 330 331 332 332 332 330 329 329 328 326 324 323 321 320 319 318 316 314 312 310 308 306 304 301 297 293 289 285 280 276 270 267 263 260 259
321 325 328 328 328 330 332 332 332 331 332 333 334 334 332 330 330 328 327 326 325 323 322 321 319 318 316 315 312 309 307 304 300 297 294 289 284 279 274 269 265 260 257 256
323 327 329 330 330 332 333 334 333 333 333 334 334 335 333 331 330 329 329 328 327 326 325 323 322 320 319 316 314 311 308 304 300 297 294 289 283 278 273 268 263 258 255 253
324 327 329 330 331 332 333 334 334 334 335 335 335 335 335 334 333 332 332 331 330 329 327 326 324 323 321 319 316 314 310 306 302 298 294 290 284 277 271 266 261 257 254 251
323 325 327 328 331 332 332 334 335 336 336 337 337 336 337 336 336 335 334 333 332 331 330 329 327 326 324 322 320 317 313 310 306 301 295 291 286 278 269 263 260 256 253 249
322 324 326 328 330 332 332 333 335 336 336 337 338 337 338 337 337 336 335 335 334 334 333 332 331 330 329 327 325 322 318 315 311 306 300 293 287 279 269 262 257 253 251 248
323 325 325 327 329 331 332 334 335 336 337 338 339 339 339 339 338 338 337 337 337 337 336 336 335 335 334 333 331 328 325 321 318 312 304 297 289 280 270 263 256 251 247 244
321 323 324 326 328 331 333 334 335 336 338 339 340 340 340 340 340 339 339 339 339 340 339 339 338 338 338 337 336 334 332 327 324 319 311 301 291 283 275 264 255 248 243 239
320 322 324 327 329 332 334 334 335 337 339 340 341 341 341 341 341 341 341 342 342 342 342 343 342 342 341 341 339 338 336 334 330 326 320 310 299 289 277 261 250 241 236 232
320 323 326 328 330 331 332 333 335 338 339 340 341 342 342 342 342 342 343 343 344 345 345 345 346 346 346 345 345 343 341 339 338 335 330 322 311 297 277 256 243 235 229 226
320 323 325 327 328 328 330 333 336 338 339 341 342 342 343 343 343 343 344 345 346 347 348 348 349 350 350 350 350 349 347 346 345 345 342 338 330 314 286 252 235 226 221 219
320 322 323 324 325 327 330 333 336 338 340 341 343 343 343 344 344 345 345 346 348 349 350 351 352 353 354 355 356 355 355 354 354 354 352 350 346 339 310 239 216 210 208 207
317 319 320 322 323 326 330 333 336 338 339 341 343 343 344 345 346 346 347 349 350 351 353 354 354 356 357 359 0 1 2 3 4 5 7 8 10 14 25 132 176 186 190 193
314 316 318 320 322 326 330 332 334 336 338 340 342 344 345 345 346 347 348 350 351 353 355 356 357 359 2 4 6 7 9 11 14 18 21 25 31 39 55 85 126 148 162 173
312 314 316 318 322 325 328 331 332 334 337 339 342 344 345 346 347 348 349 350 352 355 357 359 0 3 6 9 11 12 14 17 20 25 30 34 41 50 64 83 103 118 133 146
310 312 314 317 320 323 325 328 330 332 335 338 341 343 345 345 346 348 350 351 353 355 358 0 3 5 9 12 14 16 20 23 26 30 34 38 45 55 69 82 95 105 116 127
307 309 312 315 317 319 322 325 328 330 333 337 340 342 343 345 346 347 349 351 354 355 358 1 3 6 9 13 17 20 24 26 30 35 40 45 50 59 70 79 89 98 106 113
304 307 310 312 314 316 319 323 326 329 331 335 338 340 342 343 345 347 348 351 353 355 358 0 3 6 10 14 18 23 27 29 33 38 42 47 53 61 70 78 87 94 99 105
303 305 307 309 311 314 317 321 324 327 329 332 336 338 340 342 344 346 348 349 352 354 357 0 4 7 11 15 19 23 27 31 35 40 45 50 57 64 72 78 85 92 98 102
300 302 304 306 309 312 315 319 322 325 328 330 334 336 338 340 342 344 346 348 350 353 356 359 3 7 12 16 20 24 28 32 36 41 48 55 62 68 75 81 86 91 95 100
298 299 301 304 306 309 313 317 320 323 325 328 331 334 335 337 340 343 344 346 348 351 353 357 2 6 12 17 21 25 30 34 38 43 49 56 64 71 77 82 86 91 96 101
295 297 298 302 304 306 311 315 318 320 323 325 328 331 333 335 338 341 342 343 346 348 351 355 360 5 11 17 21 26 31 36 42 48 55 62 70 77 81 85 90 93 98 103
292 294 295 297 300 304 308 312 315 318 320 323 326 328 330 333 335 338 340 340 342 346 348 351 356 2 9 16 23 28 33 39 45 52 60 67 73 79 84 88 92 96 99 103
289 291 293 295 297 300 305 310 313 316 318 320 323 325 328 330 333 335 338 338 338 341 344 346 350 356 4 12 21 29 35 41 47 54 61 68 75 81 85 90 93 96 99 104
286 288 289 291 294 298 302 307 311 314 315 317 320 323 325 327 329 332 335 336 334 335 338 339 342 347 355 6 16 27 35 41 47 53 61 68 75 82 86 90 94 97 101 106
Height
5838 5836 5834 5831 5828 5825 5822 5818 5815 5810 5805 5800 5794 5787 5780 5773 5765 5757 5748 5739 5731 5722 5713 5704 5694 5685 5676 5667 5658 5650 5643 5636 5631 5626 5623 5620 5617 5616 5615 5615 5615 5615 5615 5616
5836 5833 5831 5828 5825 5822 5818 5814 5810 5805 5801 5795 5788 5780 5772 5764 5756 5748 5739 5730 5720 5711 5701 5691 5681 5671 5661 5652 5643 5634 5626 5619 5613 5608 5604 5601 5599 5598 5598 5598 5599 5599 5600 5601
5833 5831 5828 5825 5822 5818 5815 5810 5805 5800 5795 5788 5782 5774 5764 5755 5747 5738 5729 5719 5709 5699 5688 5678 5667 5656 5646 5636 5627 5617 5609 5601 5595 5590 5586 5583 5581 5580 5581 5581 5583 5584 5586 5587
5831 5829 5825 5824 5818 5814 5810 5806 5800 5794 5788 5781 5775 5767 5757 5747 5738 5728 5718 5708 5698 5687 5676 5664 5653 5641 5631 5621 5611 5601 5593 5585 5578 5572 5568 5565 5563 5563 5563 5564 5566 5568 5571 5573
5828 5824 5821 5818 5813 5809 5805 5801 5795 5789 5782 5775 5767 5761 5753 5741 5731 5719 5709 5697 5686 5675 5663 5651 5639 5627 5617 5606 5596 5586 5576 5568 5561 5555 5550 5547 5545 5545 5546 5547 5550 5552 5556 5559
5824 5820 5817 5814 5809 5804 5800 5795 5789 5782 5775 5767 5759 5752 5745 5733 5722 5710 5699 5687 5675 5664 5652 5639 5627 5615 5604 5592 5581 5570 5560 5552 5544 5538 5533 5530 5528 5528 5529 5531 5533 5537 5541 5545
5820 5817 5814 5810 5805 5800 5796 5790 5783 5775 5768 5761 5752 5742 5733 5722 5711 5699 5688 5677 5665 5653 5640 5628 5615 5603 5591 5578 5567 5555 5545 5536 5529 5522 5517 5514 5513 5512 5513 5515 5518 5522 5526 5531
5817 5813 5811 5805 5800 5796 5791 5784 5777 5770 5763 5755 5746 5736 5725 5714 5703 5691 5680 5668 5656 5644 5631 5618 5604 5591 5578 5566 5554 5542 5532 5523 5515 5509 5504 5501 5499 5499 5499 5501 5504 5508 5513 5518
5813 5811 5805 5800 5796 5791 5785 5779 5772 5765 5757 5749 5739 5729 5718 5707 5695 5684 5672 5660 5648 5635 5623 5609 5595 5581 5568 5556 5543 5532 5522 5513 5505 5498 5493 5490 5487 5487 5487 5489 5492 5496 5500 5506
5808 5805 5801 5797 5792 5786 5780 5774 5767 5759 5751 5742 5732 5722 5711 5700 5688 5677 5665 5653 5641 5628 5615 5602 5588 5574 5560 5547 5535 5524 5514 5505 5497 5490 5484 5480 5477 5476 5477 5478 5481 5485 5490 5495
5804 5801 5796 5792 5786 5781 5775 5768 5761 5753 5744 5735 5726 5716 5705 5694 5682 5671 5659 5647 5634 5621 5609 5595 5582 5569 5555 5541 5529 5518 5508 5499 5490 5482 5477 5472 5470 5468 5468 5470 5473 5477 5481 5487
5799 5795 5791 5787 5781 5776 5770 5764 5756 5748 5740 5730 5720 5710 5699 5688 5676 5665 5653 5641 5629 5617 5604 5591 5578 5564 5551 5537 5524 5513 5503 5494 5485 5478 5472 5467 5464 5463 5462 5464 5467 5470 5475 5481
5794 5790 5786 5781 5777 5771 5766 5759 5751 5743 5734 5725 5715 5704 5694 5683 5671 5660 5648 5637 5625 5613 5600 5587 5574 5561 5548 5534 5521 5510 5500 5490 5482 5475 5469 5464 5461 5459 5459 5461 5463 5466 5471 5476
5789 5785 5781 5777 5772 5767 5761 5754 5746 5738 5729 5719 5710 5699 5689 5678 5667 5655 5644 5633 5621 5609 5597 5585 5572 5560 5547 5533 5521 5509 5498 5489 5481 5474 5468 5464 5461 5459 5458 5459 5462 5465 5469 5473
5784 5781 5777 5772 5767 5762 5755 5748 5741 5733 5724 5715 5706 5695 5685 5674 5663 5652 5641 5630 5619 5607 5596 5584 5572 5560 5547 5534 5522 5510 5500 5491 5483 5476 5470 5466 5462 5460 5460 5461 5462 5465 5468 5472
5779 5775 5771 5767 5762 5756 5750 5743 5736 5728 5720 5711 5701 5691 5680 5670 5659 5648 5638 5627 5617 5606 5595 5584 5573 5561 5549 5536 5524 5513 5503 5494 5487 5480 5474 5470 5467 5464 5463 5464 5465 5467 5470 5473
5773 5770 5766 5761 5756 5750 5744 5737 5730 5723 5714 5705 5696 5687 5677 5667 5657 5647 5636 5626 5616 5605 5595 5585 5574 5563 5551 5540 5528 5518 5508 5500 5493 5486 5481 5476 5472 5470 5469 5469 5470 5471 5473 5476
5767 5763 5759 5755 5749 5744 5738 5731 5724 5717 5709 5700 5691 5682 5673 5664 5654 5645 5635 5625 5616 5606 5596 5587 5576 5566 5556 5545 5534 5524 5514 5506 5499 5493 5488 5484 5480 5478 5476 5476 5476 5477 5479 5481
5760 5756 5752 5748 5743 5737 5731 5725 5719 5711 5704 5695 5687 5678 5669 5660 5651 5642 5633 5625 5616 5608 5599 5589 5580 5570 5560 5550 5540 5531 5522 5514 5507 5501 5496 5492 5488 5486 5484 5484 5484 5484 5486 5487
5752 5749 5744 5740 5735 5730 5725 5719 5712 5705 5698 5690 5682 5674 5666 5658 5649 5641 5632 5623 5615 5607 5599 5591 5583 5574 5565 5557 5547 5538 5530 5522 5516 5510 5505 5501 5497 5495 5493 5492 5492 5492 5493 5494
5744 5740 5736 5732 5727 5723 5717 5712 5706 5699 5692 5685 5678 5670 5662 5654 5646 5639 5631 5624 5616 5608 5601 5594 5586 5578 5570 5562 5554 5546 5538 5531 5525 5519 5514 5510 5506 5504 5502 5501 5500 5500 5501 5502
5735 5731 5727 5723 5719 5714 5709 5704 5698 5693 5686 5680 5673 5666 5659 5652 5644 5636 5629 5622 5616 5609 5602 5596 5589 5582 5575 5567 5560 5553 5546 5539 5533 5528 5523 5519 5516 5514 5512 5511 5510 5510 5510 5511
5725 5722 5718 5714 5710 5706 5701 5696 5691 5686 5680 5674 5668 5661 5655 5648 5642 5635 5628 5622 5615 5609 5603 5597 5591 5585 5579 5573 5566 5560 5553 5547 5542 5537 5532 5528 5526 5524 5522 5521 5521 5520 5520 5521
5715 5712 5709 5705 5701 5697 5693 5688 5684 5678 5673 5667 5662 5656 5651 5644 5638 5632 5625 5620 5614 5608 5603 5598 5593 5588 5583 5577 5572 5566 5561 5555 5550 5546 5541 5538 5535 5534 5532 5531 5531 5531 5531 5532
5704 5702 5699 5695 5692 5688 5684 5680 5676 5671 5666 5661 5656 5651 5645 5640 5634 5629 5623 5618 5613 5608 5603 5599 5594 5590 5586 5581 5577 5572 5568 5563 5558 5554 5551 5548 5545 5543 5542 5541 5541 5541 5541 5542
5693 5691 5688 5685 5682 5679 5676 5672 5668 5664 5659 5655 5650 5645 5640 5635 5630 5625 5620 5615 5611 5606 5602 5598 5595 5591 5588 5584 5581 5577 5573 5570 5566 5563 5559 5557 5555 5553 5552 5551 5550 5550 5550 5551
5681 5680 5678 5675 5672 5669 5667 5664 5661 5657 5653 5648 5644 5640 5635 5631 5626 5621 5617 5612 5608 5604 5601 5597 5594 5591 5589 5586 5583 5580 5578 5575 5572 5570 5567 5565 5563 5562 5560 5560 5559 5559 5559 5560